Location: Ipswich
(52.0579°N, 1.1528°E)
Time: 10:08:43
(UTC+01:00)

ISS - Pass Details

Date: 02 May 2026
Orbit: 414 x 424 km, 51.6° (Epoch: 8 May)

Event Time Altitude Azimuth Distance (km) Brightness Sun altitude
Exits shadow 03:03:03 38° 259° (W) 656 -3.2 -16.9°
Maximum altitude 03:04:13 83° 177° (S) 427 -3.9 -16.8°
Drops below altitude 10° 03:07:36 10° 88° (E) 1,503 -0.5 -16.5°
Sets 03:09:42 0° 87° (E) 2,370 0.6 -16.3°
